Precipitable_Water
0.85 0.83 0.83 0.81 0.80 0.79 0.79 0.79 0.76 0.76 0.76 0.75 0.70 0.69 0.68 0.68 0.67 0.67 0.68 0.66 0.66 0.65 0.65 0.65 0.64 0.63 0.62 0.59 0.56 0.54 0.51 0.49 0.50 0.49 0.47 0.45 0.43 0.41 0.41 0.41 0.40 0.40 0.40 0.39 0.39 0.38 0.35 0.33 0.32 0.32 0.33 0.31 0.30 0.30 0.32 0.34 0.35 0.37 0.39 0.40 0.40 0.43 0.42 0.39 0.33 0.30 0.37 0.46 0.45 0.44 0.49 0.50 0.45 0.50 0.50 0.50 0.53 0.56 0.59 0.65 0.71 0.76 0.79 0.84 0.90
0.89 0.88 0.88 0.86 0.83 0.81 0.81 0.83 0.84 0.82 0.77 0.78 0.79 0.78 0.75 0.73 0.73 0.73 0.70 0.70 0.70 0.68 0.67 0.68 0.67 0.66 0.64 0.62 0.60 0.58 0.56 0.53 0.52 0.50 0.47 0.45 0.43 0.43 0.41 0.40 0.39 0.39 0.39 0.38 0.37 0.36 0.35 0.32 0.31 0.32 0.32 0.30 0.30 0.28 0.28 0.30 0.32 0.33 0.34 0.36 0.36 0.38 0.44 0.39 0.36 0.33 0.30 0.40 0.41 0.48 0.49 0.51 0.43 0.51 0.51 0.49 0.48 0.50 0.50 0.54 0.61 0.69 0.75 0.80 0.83
0.96 0.95 0.93 0.91 0.90 0.88 0.87 0.85 0.85 0.84 0.83 0.83 0.84 0.86 0.85 0.82 0.80 0.76 0.74 0.73 0.73 0.72 0.71 0.70 0.69 0.69 0.67 0.64 0.62 0.60 0.58 0.56 0.55 0.53 0.50 0.47 0.44 0.43 0.42 0.41 0.40 0.40 0.39 0.37 0.36 0.36 0.35 0.33 0.32 0.32 0.32 0.30 0.30 0.30 0.30 0.29 0.30 0.30 0.33 0.35 0.34 0.35 0.37 0.38 0.35 0.31 0.30 0.31 0.39 0.38 0.41 0.47 0.46 0.44 0.45 0.47 0.47 0.47 0.47 0.50 0.53 0.58 0.64 0.71 0.77
0.96 0.97 0.96 0.94 0.96 0.95 0.93 0.92 0.90 0.90 0.89 0.90 0.89 0.90 0.92 0.91 0.88 0.84 0.81 0.79 0.75 0.75 0.75 0.74 0.72 0.70 0.68 0.66 0.63 0.61 0.60 0.59 0.58 0.56 0.53 0.50 0.47 0.44 0.44 0.43 0.42 0.41 0.39 0.38 0.37 0.36 0.35 0.33 0.33 0.32 0.32 0.30 0.30 0.29 0.29 0.29 0.28 0.28 0.29 0.32 0.34 0.34 0.36 0.36 0.36 0.32 0.30 0.28 0.32 0.35 0.38 0.39 0.40 0.45 0.46 0.47 0.44 0.43 0.44 0.49 0.54 0.55 0.59 0.64 0.69
0.96 0.95 0.95 0.95 0.95 0.97 0.97 0.96 0.92 0.91 0.90 0.92 0.93 0.96 0.97 0.97 0.96 0.92 0.88 0.84 0.82 0.79 0.77 0.77 0.74 0.71 0.69 0.67 0.66 0.64 0.62 0.62 0.60 0.58 0.57 0.54 0.51 0.48 0.46 0.45 0.43 0.42 0.41 0.40 0.38 0.37 0.36 0.34 0.34 0.33 0.32 0.30 0.29 0.28 0.28 0.27 0.27 0.28 0.28 0.29 0.30 0.32 0.34 0.35 0.34 0.34 0.31 0.27 0.28 0.33 0.36 0.37 0.39 0.41 0.43 0.40 0.42 0.44 0.45 0.43 0.46 0.51 0.57 0.62 0.64
0.92 0.95 0.97 0.95 0.96 0.98 0.99 1.00 0.97 0.93 0.91 0.92 0.93 0.96 0.97 0.98 0.98 0.97 0.97 0.92 0.89 0.87 0.83 0.79 0.75 0.74 0.73 0.71 0.69 0.68 0.67 0.65 0.63 0.61 0.60 0.58 0.54 0.51 0.49 0.47 0.46 0.45 0.43 0.42 0.40 0.39 0.37 0.36 0.35 0.34 0.33 0.30 0.28 0.27 0.28 0.27 0.28 0.27 0.27 0.28 0.29 0.30 0.31 0.33 0.33 0.32 0.31 0.30 0.28 0.27 0.31 0.32 0.33 0.35 0.40 0.41 0.38 0.38 0.39 0.43 0.43 0.45 0.50 0.55 0.61
0.65 0.74 0.84 0.90 0.95 0.97 0.99 1.01 1.01 1.00 0.96 0.94 0.95 0.96 0.96 0.96 0.97 0.97 1.00 1.01 1.03 1.00 0.95 0.89 0.82 0.77 0.75 0.73 0.71 0.69 0.68 0.67 0.64 0.63 0.61 0.59 0.56 0.53 0.51 0.50 0.49 0.49 0.47 0.45 0.43 0.41 0.39 0.37 0.35 0.34 0.32 0.30 0.28 0.27 0.28 0.28 0.29 0.29 0.29 0.29 0.31 0.31 0.31 0.31 0.31 0.31 0.30 0.29 0.28 0.28 0.28 0.31 0.32 0.30 0.35 0.39 0.39 0.39 0.35 0.36 0.36 0.41 0.43 0.49 0.53
0.55 0.56 0.60 0.67 0.75 0.83 0.94 1.00 1.02 1.01 1.02 1.00 0.97 0.96 0.95 0.95 0.95 0.96 0.97 0.95 0.90 0.87 0.93 0.95 0.93 0.87 0.82 0.77 0.75 0.72 0.69 0.66 0.64 0.63 0.61 0.58 0.55 0.53 0.52 0.52 0.51 0.50 0.49 0.46 0.44 0.42 0.39 0.37 0.34 0.32 0.30 0.29 0.29 0.30 0.30 0.29 0.30 0.29 0.31 0.31 0.31 0.31 0.30 0.30 0.30 0.30 0.30 0.29 0.28 0.26 0.28 0.28 0.31 0.34 0.35 0.35 0.32 0.33 0.37 0.37 0.35 0.38 0.41 0.45 0.51
0.52 0.53 0.55 0.57 0.60 0.65 0.72 0.82 0.94 0.99 1.00 0.99 0.99 0.97 0.96 0.96 0.95 0.94 0.95 0.93 0.93 0.93 0.94 0.92 0.92 0.89 0.86 0.82 0.79 0.77 0.73 0.68 0.64 0.61 0.58 0.55 0.53 0.52 0.51 0.50 0.48 0.46 0.45 0.45 0.43 0.42 0.39 0.37 0.33 0.30 0.30 0.29 0.28 0.28 0.28 0.29 0.28 0.28 0.30 0.32 0.31 0.30 0.30 0.30 0.30 0.29 0.29 0.29 0.28 0.29 0.28 0.28 0.29 0.29 0.29 0.30 0.30 0.30 0.35 0.39 0.38 0.40 0.41 0.41 0.42
0.44 0.46 0.47 0.49 0.52 0.54 0.55 0.60 0.68 0.78 0.86 0.92 0.95 0.95 0.95 0.94 0.93 0.93 0.94 0.94 0.93 0.91 0.88 0.88 0.87 0.88 0.86 0.82 0.79 0.77 0.75 0.75 0.72 0.67 0.60 0.55 0.51 0.48 0.48 0.47 0.46 0.45 0.44 0.42 0.41 0.40 0.38 0.35 0.34 0.32 0.31 0.29 0.29 0.29 0.29 0.28 0.29 0.29 0.29 0.30 0.30 0.30 0.30 0.29 0.29 0.29 0.28 0.28 0.28 0.29 0.27 0.27 0.28 0.30 0.29 0.32 0.35 0.36 0.35 0.36 0.33 0.36 0.40 0.40 0.43
0.38 0.38 0.39 0.42 0.45 0.48 0.49 0.50 0.53 0.57 0.64 0.73 0.83 0.88 0.90 0.90 0.90 0.89 0.90 0.91 0.93 0.93 0.88 0.82 0.81 0.83 0.83 0.80 0.75 0.72 0.71 0.70 0.68 0.67 0.65 0.61 0.58 0.53 0.47 0.45 0.45 0.44 0.43 0.41 0.38 0.37 0.35 0.34 0.34 0.34 0.33 0.33 0.32 0.32 0.30 0.29 0.28 0.28 0.28 0.29 0.29 0.29 0.29 0.28 0.28 0.29 0.28 0.28 0.29 0.29 0.29 0.28 0.30 0.32 0.32 0.33 0.35 0.35 0.35 0.37 0.36 0.36 0.34 0.33 0.31
0.33 0.33 0.33 0.34 0.36 0.38 0.41 0.45 0.47 0.49 0.52 0.56 0.62 0.70 0.78 0.82 0.84 0.85 0.85 0.86 0.88 0.89 0.85 0.81 0.79 0.77 0.75 0.72 0.69 0.66 0.63 0.61 0.60 0.59 0.60 0.59 0.57 0.54 0.51 0.48 0.46 0.44 0.43 0.41 0.38 0.36 0.35 0.35 0.35 0.35 0.35 0.33 0.32 0.31 0.31 0.31 0.30 0.30 0.29 0.29 0.29 0.29 0.30 0.29 0.28 0.28 0.28 0.27 0.27 0.28 0.29 0.29 0.31 0.33 0.34 0.35 0.33 0.35 0.38 0.38 0.37 0.36 0.35 0.33 0.35
0.32 0.32 0.33 0.33 0.32 0.33 0.34 0.35 0.38 0.41 0.45 0.50 0.55 0.58 0.62 0.67 0.73 0.77 0.78 0.81 0.80 0.77 0.77 0.76 0.74 0.73 0.71 0.69 0.66 0.63 0.58 0.55 0.55 0.57 0.60 0.59 0.54 0.53 0.51 0.48 0.46 0.45 0.43 0.40 0.38 0.37 0.36 0.36 0.36 0.37 0.36 0.35 0.34 0.33 0.32 0.32 0.32 0.31 0.31 0.30 0.30 0.30 0.29 0.30 0.31 0.30 0.30 0.29 0.28 0.28 0.29 0.30 0.30 0.31 0.35 0.36 0.38 0.34 0.35 0.35 0.36 0.36 0.37 0.36 0.36
0.32 0.32 0.33 0.33 0.33 0.34 0.33 0.33 0.33 0.36 0.39 0.42 0.46 0.49 0.53 0.57 0.65 0.72 0.76 0.76 0.73 0.72 0.71 0.71 0.72 0.70 0.69 0.67 0.63 0.59 0.55 0.53 0.53 0.54 0.58 0.57 0.55 0.52 0.50 0.47 0.44 0.42 0.40 0.39 0.39 0.38 0.38 0.36 0.35 0.35 0.36 0.36 0.35 0.34 0.33 0.33 0.32 0.32 0.31 0.31 0.31 0.31 0.32 0.32 0.31 0.31 0.31 0.30 0.29 0.27 0.31 0.33 0.31 0.33 0.36 0.38 0.37 0.35 0.34 0.34 0.37 0.37 0.38 0.39 0.43
0.31 0.32 0.32 0.33 0.33 0.34 0.34 0.34 0.35 0.36 0.38 0.40 0.41 0.41 0.44 0.49 0.54 0.61 0.66 0.67 0.66 0.65 0.65 0.65 0.65 0.64 0.63 0.61 0.58 0.55 0.53 0.52 0.53 0.53 0.53 0.54 0.55 0.53 0.51 0.47 0.43 0.41 0.41 0.41 0.40 0.39 0.38 0.38 0.37 0.36 0.36 0.36 0.36 0.35 0.33 0.32 0.32 0.31 0.30 0.30 0.30 0.31 0.31 0.32 0.33 0.33 0.34 0.33 0.32 0.31 0.32 0.34 0.34 0.35 0.37 0.38 0.38 0.39 0.40 0.38 0.39 0.40 0.42 0.47 0.47
0.30 0.31 0.32 0.34 0.35 0.35 0.35 0.34 0.35 0.36 0.37 0.39 0.40 0.41 0.44 0.46 0.49 0.56 0.60 0.61 0.62 0.63 0.63 0.63 0.61 0.61 0.61 0.61 0.58 0.55 0.55 0.59 0.60 0.60 0.59 0.56 0.55 0.52 0.48 0.44 0.41 0.41 0.41 0.40 0.39 0.39 0.39 0.38 0.38 0.38 0.38 0.37 0.37 0.36 0.36 0.35 0.33 0.31 0.30 0.30 0.31 0.31 0.32 0.33 0.34 0.34 0.34 0.34 0.34 0.34 0.34 0.35 0.36 0.36 0.37 0.38 0.39 0.40 0.41 0.42 0.42 0.40 0.38 0.35 0.32
0.30 0.31 0.32 0.34 0.36 0.37 0.37 0.36 0.35 0.35 0.37 0.37 0.38 0.41 0.43 0.46 0.51 0.57 0.58 0.59 0.60 0.60 0.60 0.61 0.62 0.61 0.61 0.60 0.57 0.57 0.58 0.58 0.56 0.56 0.55 0.54 0.51 0.47 0.43 0.40 0.39 0.38 0.37 0.37 0.37 0.38 0.39 0.39 0.38 0.38 0.38 0.38 0.38 0.38 0.38 0.37 0.34 0.32 0.31 0.31 0.31 0.31 0.31 0.33 0.34 0.34 0.34 0.34 0.33 0.33 0.33 0.33 0.33 0.34 0.35 0.35 0.36 0.37 0.37 0.35 0.34 0.39 0.37 0.32 0.33
0.31 0.32 0.33 0.35 0.36 0.37 0.38 0.37 0.36 0.37 0.37 0.38 0.39 0.42 0.46 0.49 0.52 0.56 0.57 0.57 0.58 0.61 0.62 0.62 0.63 0.63 0.61 0.58 0.54 0.50 0.48 0.47 0.45 0.43 0.40 0.39 0.37 0.36 0.35 0.34 0.35 0.35 0.35 0.36 0.37 0.37 0.38 0.38 0.38 0.38 0.37 0.38 0.38 0.38 0.38 0.37 0.34 0.33 0.32 0.31 0.30 0.29 0.30 0.33 0.34 0.34 0.35 0.35 0.35 0.34 0.34 0.33 0.33 0.33 0.33 0.33 0.34 0.35 0.34 0.30 0.33 0.36 0.33 0.34 0.32
0.31 0.33 0.34 0.37 0.38 0.39 0.39 0.39 0.38 0.38 0.38 0.39 0.42 0.42 0.44 0.47 0.51 0.54 0.57 0.59 0.61 0.63 0.65 0.63 0.61 0.58 0.58 0.55 0.51 0.48 0.46 0.44 0.42 0.40 0.38 0.38 0.39 0.38 0.37 0.36 0.35 0.35 0.35 0.35 0.36 0.37 0.37 0.38 0.38 0.37 0.36 0.36 0.37 0.37 0.37 0.36 0.34 0.33 0.32 0.31 0.29 0.29 0.31 0.33 0.33 0.33 0.33 0.34 0.34 0.35 0.34 0.35 0.35 0.35 0.35 0.35 0.34 0.35 0.35 0.34 0.36 0.34 0.31 0.33 0.35
0.35 0.37 0.38 0.39 0.40 0.40 0.40 0.39 0.39 0.39 0.40 0.42 0.43 0.44 0.46 0.46 0.49 0.52 0.54 0.57 0.58 0.56 0.53 0.52 0.50 0.50 0.51 0.52 0.50 0.48 0.45 0.42 0.40 0.39 0.39 0.39 0.39 0.39 0.40 0.38 0.35 0.34 0.35 0.35 0.35 0.36 0.36 0.36 0.36 0.37 0.37 0.36 0.36 0.37 0.37 0.37 0.35 0.35 0.34 0.32 0.30 0.30 0.35 0.35 0.35 0.35 0.34 0.34 0.34 0.34 0.34 0.35 0.35 0.35 0.36 0.36 0.37 0.37 0.35 0.36 0.36 0.35 0.33 0.33 0.35
0.38 0.39 0.40 0.41 0.42 0.42 0.42 0.42 0.42 0.43 0.45 0.44 0.45 0.47 0.48 0.47 0.50 0.51 0.51 0.52 0.54 0.54 0.55 0.57 0.56 0.54 0.54 0.53 0.49 0.44 0.42 0.41 0.42 0.42 0.42 0.43 0.42 0.40 0.39 0.37 0.36 0.35 0.35 0.35 0.35 0.34 0.34 0.35 0.36 0.37 0.37 0.37 0.37 0.37 0.37 0.38 0.37 0.37 0.36 0.34 0.34 0.36 0.38 0.36 0.36 0.37 0.35 0.35 0.34 0.34 0.34 0.34 0.34 0.35 0.35 0.36 0.37 0.38 0.38 0.38 0.38 0.37 0.36 0.34 0.34
0.41 0.41 0.41 0.41 0.43 0.44 0.45 0.46 0.47 0.47 0.48 0.48 0.47 0.47 0.50 0.52 0.53 0.51 0.54 0.58 0.58 0.59 0.60 0.56 0.56 0.52 0.49 0.47 0.48 0.48 0.49 0.46 0.45 0.43 0.40 0.38 0.38 0.37 0.36 0.36 0.36 0.35 0.34 0.34 0.34 0.34 0.35 0.35 0.36 0.37 0.37 0.38 0.38 0.38 0.38 0.38 0.38 0.38 0.37 0.37 0.37 0.37 0.36 0.36 0.36 0.35 0.35 0.34 0.34 0.33 0.34 0.34 0.34 0.35 0.36 0.36 0.37 0.39 0.40 0.40 0.41 0.41 0.40 0.39 0.37
0.41 0.41 0.41 0.42 0.45 0.46 0.48 0.49 0.49 0.50 0.50 0.51 0.50 0.49 0.49 0.49 0.51 0.52 0.52 0.53 0.51 0.48 0.45 0.42 0.37 0.34 0.33 0.34 0.37 0.40 0.43 0.42 0.39 0.38 0.37 0.37 0.37 0.36 0.35 0.35 0.36 0.36 0.35 0.34 0.35 0.36 0.37 0.37 0.38 0.38 0.38 0.37 0.37 0.36 0.36 0.37 0.37 0.37 0.37 0.37 0.38 0.38 0.38 0.37 0.37 0.36 0.35 0.35 0.34 0.34 0.34 0.35 0.35 0.35 0.37 0.37 0.39 0.40 0.41 0.42 0.43 0.43 0.43 0.43 0.43
0.42 0.42 0.43 0.46 0.48 0.49 0.50 0.52 0.53 0.53 0.53 0.52 0.51 0.49 0.46 0.45 0.45 0.44 0.44 0.44 0.41 0.36 0.32 0.30 0.30 0.31 0.32 0.33 0.34 0.34 0.36 0.38 0.38 0.38 0.38 0.36 0.35 0.36 0.37 0.37 0.38 0.38 0.38 0.36 0.37 0.38 0.38 0.37 0.37 0.37 0.36 0.36 0.36 0.37 0.37 0.37 0.37 0.37 0.38 0.38 0.39 0.39 0.39 0.38 0.38 0.38 0.38 0.37 0.36 0.37 0.38 0.39 0.40 0.40 0.40 0.42 0.42 0.43 0.43 0.43 0.44 0.44 0.44 0.44 0.45
0.42 0.43 0.47 0.50 0.51 0.52 0.54 0.54 0.54 0.53 0.53 0.52 0.47 0.45 0.43 0.42 0.39 0.38 0.35 0.35 0.37 0.37 0.38 0.39 0.38 0.38 0.38 0.38 0.38 0.39 0.40 0.39 0.38 0.36 0.34 0.34 0.35 0.37 0.37 0.38 0.38 0.38 0.37 0.38 0.38 0.37 0.37 0.37 0.37 0.37 0.37 0.37 0.38 0.38 0.39 0.39 0.40 0.40 0.41 0.41 0.42 0.41 0.41 0.41 0.41 0.41 0.39 0.39 0.40 0.42 0.43 0.44 0.45 0.46 0.47 0.47 0.47 0.47 0.45 0.44 0.45 0.46 0.46 0.46 0.46
0.44 0.47 0.51 0.53 0.55 0.56 0.56 0.55 0.54 0.52 0.51 0.50 0.48 0.47 0.46 0.45 0.46 0.44 0.40 0.41 0.43 0.44 0.44 0.44 0.43 0.43 0.41 0.40 0.39 0.38 0.37 0.36 0.34 0.34 0.35 0.36 0.37 0.37 0.37 0.37 0.36 0.36 0.36 0.36 0.36 0.37 0.37 0.37 0.37 0.38 0.38 0.39 0.39 0.39 0.39 0.40 0.41 0.42 0.43 0.44 0.44 0.45 0.45 0.44 0.44 0.43 0.43 0.44 0.46 0.46 0.48 0.50 0.51 0.52 0.53 0.52 0.50 0.49 0.48 0.46 0.45 0.44 0.45 0.45 0.43
0.48 0.52 0.55 0.58 0.58 0.58 0.56 0.52 0.51 0.51 0.47 0.45 0.44 0.42 0.42 0.41 0.42 0.41 0.41 0.38 0.38 0.40 0.40 0.40 0.40 0.39 0.39 0.38 0.37 0.36 0.33 0.32 0.32 0.34 0.35 0.35 0.35 0.35 0.35 0.35 0.36 0.36 0.35 0.36 0.36 0.36 0.37 0.37 0.38 0.38 0.39 0.40 0.41 0.41 0.42 0.43 0.43 0.44 0.45 0.46 0.47 0.47 0.48 0.48 0.48 0.48 0.49 0.50 0.51 0.52 0.54 0.56 0.58 0.57 0.56 0.57 0.56 0.56 0.56 0.53 0.49 0.47 0.47 0.47 0.45
0.53 0.56 0.59 0.59 0.58 0.57 0.54 0.51 0.48 0.45 0.46 0.46 0.46 0.45 0.44 0.46 0.44 0.42 0.40 0.39 0.38 0.38 0.40 0.39 0.39 0.38 0.37 0.36 0.34 0.32 0.32 0.32 0.32 0.32 0.32 0.33 0.33 0.33 0.34 0.34 0.34 0.34 0.34 0.35 0.36 0.36 0.37 0.38 0.39 0.39 0.40 0.40 0.41 0.42 0.43 0.44 0.44 0.45 0.46 0.48 0.49 0.51 0.53 0.54 0.55 0.55 0.55 0.56 0.56 0.57 0.58 0.59 0.59 0.60 0.60 0.59 0.58 0.58 0.59 0.57 0.54 0.52 0.51 0.50 0.46
0.60 0.60 0.59 0.57 0.54 0.51 0.48 0.46 0.44 0.45 0.45 0.45 0.43 0.42 0.41 0.39 0.37 0.36 0.37 0.39 0.40 0.41 0.41 0.41 0.39 0.37 0.36 0.34 0.32 0.31 0.32 0.31 0.32 0.33 0.33 0.32 0.32 0.32 0.32 0.33 0.33 0.34 0.35 0.35 0.36 0.37 0.37 0.37 0.38 0.38 0.39 0.39 0.40 0.42 0.43 0.44 0.46 0.48 0.49 0.51 0.53 0.55 0.56 0.56 0.55 0.56 0.58 0.58 0.57 0.58 0.59 0.60 0.60 0.61 0.60 0.59 0.59 0.59 0.60 0.58 0.57 0.55 0.55 0.53 0.49
0.58 0.57 0.55 0.51 0.49 0.47 0.46 0.46 0.47 0.47 0.46 0.43 0.41 0.40 0.41 0.40 0.39 0.39 0.41 0.44 0.43 0.43 0.42 0.40 0.39 0.38 0.36 0.35 0.35 0.32 0.31 0.32 0.34 0.33 0.33 0.32 0.32 0.33 0.33 0.34 0.34 0.35 0.35 0.36 0.37 0.36 0.36 0.36 0.37 0.38 0.39 0.40 0.41 0.43 0.45 0.46 0.48 0.50 0.52 0.55 0.56 0.57 0.57 0.58 0.59 0.59 0.60 0.60 0.60 0.59 0.59 0.59 0.59 0.60 0.60 0.59 0.60 0.60 0.61 0.59 0.58 0.58 0.56 0.54 0.53
0.54 0.53 0.53 0.53 0.53 0.53 0.52 0.50 0.47 0.44 0.42 0.41 0.40 0.39 0.39 0.41 0.43 0.44 0.44 0.42 0.42 0.41 0.41 0.40 0.40 0.39 0.37 0.34 0.34 0.34 0.33 0.34 0.34 0.34 0.33 0.32 0.32 0.32 0.33 0.34 0.35 0.35 0.37 0.37 0.36 0.36 0.36 0.37 0.38 0.40 0.41 0.43 0.44 0.45 0.47 0.49 0.51 0.53 0.54 0.56 0.57 0.57 0.58 0.59 0.60 0.60 0.60 0.60 0.60 0.61 0.60 0.60 0.60 0.61 0.60 0.61 0.60 0.60 0.60 0.61 0.60 0.59 0.57 0.57 0.55
0.56 0.56 0.56 0.55 0.54 0.53 0.51 0.47 0.45 0.43 0.43 0.43 0.42 0.41 0.41 0.40 0.41 0.43 0.43 0.41 0.41 0.40 0.40 0.39 0.38 0.37 0.35 0.33 0.33 0.32 0.32 0.33 0.33 0.33 0.34 0.33 0.32 0.33 0.33 0.34 0.35 0.37 0.38 0.39 0.37 0.37 0.38 0.38 0.40 0.41 0.43 0.44 0.46 0.48 0.50 0.52 0.53 0.54 0.55 0.55 0.56 0.58 0.58 0.59 0.61 0.61 0.60 0.60 0.59 0.59 0.60 0.60 0.61 0.61 0.61 0.61 0.61 0.61 0.61 0.60 0.60 0.59 0.59 0.59 0.58
0.56 0.55 0.55 0.54 0.52 0.51 0.50 0.48 0.46 0.45 0.43 0.42 0.42 0.42 0.41 0.39 0.37 0.37 0.39 0.41 0.40 0.39 0.38 0.38 0.37 0.35 0.34 0.33 0.32 0.31 0.31 0.32 0.33 0.33 0.34 0.34 0.33 0.33 0.33 0.35 0.36 0.38 0.39 0.38 0.37 0.38 0.39 0.41 0.42 0.44 0.46 0.46 0.49 0.51 0.53 0.54 0.54 0.55 0.55 0.55 0.55 0.57 0.59 0.60 0.62 0.61 0.61 0.61 0.60 0.60 0.60 0.60 0.60 0.61 0.61 0.62 0.61 0.60 0.61 0.60 0.61 0.61 0.60 0.59 0.59
0.55 0.54 0.53 0.53 0.52 0.51 0.49 0.47 0.45 0.44 0.43 0.43 0.43 0.41 0.40 0.39 0.38 0.37 0.36 0.36 0.36 0.37 0.37 0.36 0.35 0.34 0.33 0.32 0.31 0.31 0.31 0.32 0.33 0.33 0.33 0.33 0.33 0.33 0.33 0.34 0.37 0.39 0.39 0.38 0.39 0.39 0.41 0.43 0.45 0.46 0.48 0.49 0.51 0.52 0.53 0.54 0.55 0.56 0.56 0.57 0.57 0.59 0.59 0.61 0.61 0.60 0.60 0.61 0.60 0.61 0.61 0.61 0.61 0.60 0.60 0.60 0.60 0.61 0.60 0.60 0.60 0.59 0.59 0.59 0.58
0.53 0.53 0.53 0.53 0.53 0.51 0.50 0.47 0.44 0.43 0.43 0.42 0.41 0.40 0.38 0.38 0.38 0.36 0.35 0.33 0.32 0.31 0.32 0.33 0.33 0.32 0.31 0.31 0.31 0.31 0.31 0.32 0.32 0.33 0.33 0.33 0.33 0.34 0.34 0.33 0.33 0.36 0.39 0.40 0.41 0.41 0.43 0.44 0.46 0.48 0.49 0.50 0.51 0.52 0.53 0.55 0.56 0.56 0.56 0.57 0.58 0.58 0.59 0.60 0.60 0.60 0.60 0.60 0.60 0.60 0.61 0.61 0.61 0.61 0.60 0.59 0.58 0.57 0.58 0.59 0.59 0.59 0.59 0.59 0.59
0.53 0.52 0.52 0.51 0.51 0.51 0.50 0.48 0.44 0.43 0.43 0.42 0.41 0.39 0.38 0.36 0.35 0.34 0.33 0.31 0.30 0.30 0.30 0.31 0.31 0.31 0.31 0.32 0.32 0.32 0.31 0.31 0.32 0.32 0.33 0.33 0.33 0.34 0.30 0.31 0.33 0.35 0.38 0.40 0.41 0.43 0.45 0.46 0.48 0.49 0.51 0.51 0.52 0.52 0.53 0.54 0.55 0.56 0.57 0.57 0.57 0.57 0.58 0.59 0.60 0.61 0.62 0.61 0.61 0.61 0.61 0.61 0.62 0.61 0.61 0.61 0.59 0.58 0.58 0.57 0.58 0.60 0.60 0.60 0.60
0.53 0.52 0.51 0.51 0.51 0.51 0.50 0.48 0.45 0.43 0.42 0.42 0.40 0.37 0.36 0.34 0.33 0.32 0.32 0.31 0.30 0.29 0.29 0.29 0.29 0.29 0.31 0.32 0.33 0.32 0.31 0.31 0.31 0.33 0.33 0.34 0.34 0.33 0.31 0.32 0.33 0.36 0.38 0.40 0.42 0.43 0.45 0.47 0.49 0.50 0.51 0.51 0.51 0.52 0.53 0.54 0.55 0.56 0.57 0.58 0.58 0.57 0.59 0.60 0.61 0.62 0.62 0.61 0.60 0.60 0.60 0.60 0.61 0.61 0.60 0.59 0.60 0.60 0.59 0.58 0.58 0.60 0.60 0.60 0.60
0.53 0.51 0.50 0.50 0.50 0.49 0.49 0.48 0.45 0.42 0.42 0.40 0.38 0.36 0.34 0.33 0.32 0.32 0.31 0.29 0.29 0.28 0.27 0.28 0.28 0.29 0.29 0.30 0.33 0.32 0.30 0.31 0.32 0.33 0.34 0.33 0.34 0.33 0.32 0.31 0.34 0.36 0.38 0.41 0.43 0.44 0.45 0.48 0.49 0.50 0.51 0.51 0.52 0.53 0.53 0.54 0.55 0.56 0.56 0.57 0.58 0.59 0.61 0.61 0.62 0.62 0.61 0.58 0.58 0.60 0.61 0.61 0.60 0.60 0.59 0.58 0.58 0.58 0.58 0.58 0.58 0.58 0.59 0.60 0.59
0.52 0.50 0.49 0.49 0.49 0.49 0.48 0.47 0.46 0.43 0.40 0.38 0.36 0.35 0.34 0.33 0.32 0.31 0.30 0.29 0.28 0.28 0.28 0.28 0.29 0.30 0.30 0.32 0.32 0.33 0.31 0.29 0.29 0.30 0.31 0.32 0.34 0.35 0.33 0.31 0.33 0.36 0.39 0.42 0.43 0.44 0.45 0.47 0.49 0.50 0.51 0.51 0.52 0.53 0.54 0.54 0.56 0.56 0.57 0.57 0.58 0.59 0.59 0.59 0.58 0.57 0.55 0.56 0.59 0.61 0.61 0.61 0.61 0.60 0.59 0.58 0.56 0.56 0.56 0.57 0.58 0.58 0.58 0.58 0.58
0.50 0.49 0.49 0.49 0.49 0.49 0.49 0.47 0.46 0.45 0.42 0.38 0.36 0.35 0.34 0.33 0.33 0.31 0.30 0.29 0.28 0.28 0.28 0.28 0.29 0.30 0.32 0.32 0.32 0.32 0.29 0.29 0.30 0.31 0.32 0.32 0.33 0.35 0.35 0.32 0.32 0.36 0.39 0.41 0.43 0.44 0.45 0.47 0.48 0.49 0.50 0.51 0.53 0.54 0.55 0.55 0.56 0.57 0.57 0.57 0.57 0.56 0.57 0.58 0.57 0.55 0.56 0.59 0.61 0.62 0.62 0.61 0.60 0.60 0.59 0.57 0.56 0.56 0.56 0.56 0.57 0.58 0.59 0.59 0.60
0.50 0.50 0.50 0.50 0.49 0.50 0.49 0.47 0.45 0.44 0.41 0.38 0.37 0.35 0.34 0.34 0.33 0.31 0.30 0.29 0.28 0.28 0.28 0.29 0.30 0.31 0.33 0.33 0.33 0.32 0.31 0.30 0.31 0.32 0.32 0.32 0.33 0.35 0.35 0.34 0.33 0.35 0.39 0.42 0.43 0.44 0.45 0.47 0.49 0.49 0.51 0.51 0.53 0.53 0.54 0.55 0.56 0.56 0.57 0.57 0.57 0.57 0.58 0.58 0.56 0.56 0.59 0.59 0.61 0.61 0.61 0.61 0.60 0.59 0.56 0.57 0.58 0.57 0.58 0.58 0.59 0.59 0.60 0.61 0.61
0.50 0.50 0.50 0.51 0.52 0.51 0.49 0.48 0.46 0.44 0.40 0.37 0.36 0.34 0.34 0.33 0.33 0.32 0.30 0.30 0.29 0.29 0.29 0.29 0.31 0.32 0.33 0.32 0.32 0.32 0.32 0.32 0.32 0.32 0.33 0.33 0.34 0.35 0.37 0.36 0.34 0.36 0.38 0.41 0.43 0.44 0.45 0.47 0.49 0.50 0.51 0.51 0.52 0.53 0.54 0.55 0.56 0.56 0.57 0.58 0.58 0.57 0.57 0.56 0.55 0.58 0.58 0.59 0.60 0.61 0.61 0.62 0.62 0.61 0.60 0.59 0.58 0.58 0.59 0.59 0.60 0.61 0.61 0.61 0.62
0.51 0.51 0.53 0.53 0.53 0.52 0.51 0.48 0.45 0.41 0.38 0.36 0.35 0.35 0.34 0.34 0.33 0.32 0.31 0.31 0.30 0.30 0.29 0.30 0.31 0.33 0.33 0.32 0.32 0.32 0.33 0.33 0.32 0.32 0.33 0.33 0.34 0.36 0.37 0.37 0.35 0.36 0.38 0.42 0.45 0.46 0.46 0.47 0.49 0.50 0.51 0.52 0.53 0.53 0.54 0.55 0.56 0.56 0.57 0.58 0.58 0.58 0.57 0.55 0.56 0.58 0.58 0.60 0.60 0.60 0.61 0.61 0.62 0.61 0.61 0.61 0.60 0.60 0.60 0.61 0.61 0.62 0.62 0.62 0.61
0.53 0.55 0.54 0.54 0.54 0.54 0.52 0.47 0.42 0.40 0.37 0.36 0.36 0.35 0.35 0.35 0.34 0.33 0.32 0.31 0.31 0.31 0.30 0.31 0.31 0.31 0.31 0.31 0.31 0.31 0.32 0.32 0.32 0.32 0.33 0.33 0.34 0.35 0.37 0.38 0.37 0.35 0.37 0.41 0.44 0.46 0.46 0.47 0.49 0.50 0.52 0.53 0.54 0.55 0.56 0.57 0.57 0.57 0.58 0.59 0.59 0.58 0.58 0.55 0.56 0.58 0.61 0.61 0.60 0.61 0.60 0.61 0.61 0.61 0.60 0.61 0.61 0.61 0.61 0.61 0.61 0.61 0.61 0.59 0.57
0.55 0.54 0.53 0.53 0.53 0.53 0.50 0.46 0.43 0.41 0.39 0.38 0.37 0.37 0.36 0.35 0.34 0.33 0.32 0.31 0.30 0.30 0.30 0.31 0.31 0.30 0.30 0.29 0.30 0.30 0.32 0.32 0.32 0.31 0.32 0.33 0.33 0.35 0.38 0.39 0.37 0.35 0.36 0.39 0.43 0.46 0.47 0.47 0.49 0.50 0.51 0.53 0.54 0.55 0.56 0.58 0.58 0.59 0.60 0.60 0.59 0.58 0.58 0.55 0.59 0.62 0.64 0.63 0.61 0.60 0.60 0.61 0.60 0.59 0.59 0.59 0.59 0.59 0.58 0.58 0.58 0.57 0.56 0.55 0.54
0.54 0.53 0.53 0.52 0.51 0.50 0.48 0.45 0.42 0.41 0.40 0.40 0.38 0.37 0.36 0.35 0.34 0.33 0.32 0.31 0.30 0.30 0.29 0.29 0.28 0.28 0.28 0.28 0.30 0.31 0.32 0.32 0.32 0.32 0.33 0.34 0.34 0.35 0.38 0.39 0.38 0.35 0.36 0.38 0.42 0.45 0.46 0.47 0.48 0.50 0.51 0.52 0.54 0.55 0.56 0.58 0.59 0.60 0.61 0.61 0.61 0.60 0.60 0.56 0.61 0.62 0.65 0.64 0.62 0.60 0.60 0.60 0.60 0.60 0.59 0.59 0.58 0.58 0.57 0.57 0.57 0.56 0.55 0.54 0.54
0.53 0.52 0.52 0.50 0.48 0.48 0.47 0.46 0.44 0.42 0.40 0.39 0.38 0.37 0.35 0.34 0.33 0.32 0.32 0.31 0.30 0.28 0.27 0.26 0.26 0.26 0.28 0.29 0.30 0.30 0.32 0.32 0.31 0.32 0.32 0.34 0.34 0.35 0.37 0.39 0.38 0.35 0.35 0.38 0.42 0.45 0.46 0.47 0.49 0.50 0.51 0.53 0.53 0.54 0.55 0.57 0.58 0.59 0.61 0.62 0.61 0.60 0.61 0.60 0.60 0.61 0.62 0.64 0.63 0.62 0.59 0.61 0.61 0.61 0.61 0.63 0.63 0.62 0.61 0.59 0.58 0.57 0.57 0.56 0.55
0.53 0.52 0.51 0.50 0.49 0.47 0.45 0.42 0.40 0.40 0.39 0.38 0.36 0.35 0.34 0.33 0.32 0.31 0.30 0.28 0.26 0.25 0.25 0.26 0.26 0.27 0.28 0.29 0.30 0.31 0.32 0.32 0.32 0.32 0.32 0.34 0.34 0.34 0.36 0.38 0.38 0.35 0.34 0.36 0.41 0.44 0.46 0.47 0.48 0.50 0.51 0.52 0.53 0.54 0.55 0.57 0.58 0.59 0.61 0.62 0.62 0.61 0.62 0.62 0.64 0.64 0.64 0.64 0.65 0.64 0.61 0.63 0.64 0.64 0.65 0.65 0.65 0.65 0.64 0.63 0.63 0.61 0.61 0.62 0.63
0.53 0.52 0.51 0.50 0.47 0.44 0.42 0.40 0.38 0.37 0.36 0.36 0.35 0.34 0.33 0.32 0.30 0.28 0.26 0.25 0.25 0.25 0.26 0.26 0.27 0.28 0.28 0.29 0.30 0.31 0.31 0.32 0.32 0.31 0.31 0.32 0.34 0.34 0.35 0.37 0.38 0.36 0.33 0.35 0.40 0.44 0.46 0.47 0.48 0.50 0.51 0.53 0.53 0.54 0.55 0.56 0.57 0.59 0.60 0.61 0.62 0.61 0.62 0.63 0.63 0.64 0.64 0.67 0.67 0.66 0.65 0.66 0.66 0.66 0.66 0.66 0.66 0.66 0.65 0.65 0.64 0.63 0.63 0.63 0.63
0.44 0.45 0.45 0.44 0.43 0.41 0.40 0.39 0.37 0.36 0.35 0.35 0.33 0.32 0.30 0.28 0.27 0.26 0.26 0.26 0.26 0.26 0.26 0.27 0.28 0.28 0.28 0.29 0.30 0.30 0.30 0.30 0.30 0.30 0.30 0.31 0.33 0.34 0.35 0.36 0.37 0.35 0.33 0.34 0.39 0.43 0.45 0.46 0.48 0.49 0.51 0.52 0.53 0.54 0.55 0.56 0.57 0.58 0.59 0.61 0.62 0.62 0.62 0.63 0.64 0.63 0.65 0.67 0.68 0.67 0.67 0.66 0.66 0.66 0.66 0.66 0.65 0.65 0.64 0.63 0.63 0.63 0.62 0.62 0.61
0.35 0.36 0.35 0.35 0.33 0.31 0.29 0.28 0.28 0.29 0.29 0.29 0.28 0.28 0.28 0.28 0.28 0.28 0.27 0.27 0.27 0.27 0.27 0.27 0.28 0.28 0.29 0.29 0.29 0.29 0.28 0.29 0.29 0.29 0.29 0.30 0.32 0.33 0.34 0.34 0.36 0.34 0.32 0.33 0.38 0.42 0.45 0.46 0.47 0.48 0.50 0.52 0.53 0.54 0.55 0.56 0.57 0.58 0.59 0.61 0.61 0.62 0.62 0.62 0.63 0.64 0.65 0.66 0.68 0.67 0.66 0.65 0.64 0.63 0.63 0.64 0.64 0.64 0.63 0.63 0.62 0.62 0.61 0.61 0.61
Wind_Speed
24 24 23 23 23 23 23 23 23 23 23 23 23 23 22 22 22 21 21 20 20 20 19 19 18 18 17 17 17 16 16 16 16 16 16 16 16 16 17 17 17 17 17 17 18 18 18 19 19 20 20 20 21 21 22 22 22 23 23 24 24 24 24 24 25 25 25 25 26 26 26 27 28 28 28 28 29 29 29 29 29 29 30 30 30
24 24 24 24 25 25 25 24 24 24 24 24 24 24 24 24 24 23 23 22 22 21 21 20 19 19 18 18 18 18 17 17 17 17 17 17 17 18 18 18 18 18 18 19 19 20 20 20 21 21 22 22 23 23 23 24 24 24 25 25 25 26 26 26 26 26 26 26 26 27 27 28 28 28 29 29 30 30 30 30 30 29 30 30 31
23 24 24 25 25 25 26 26 26 26 25 25 25 25 25 25 25 24 24 24 24 23 22 22 21 20 20 20 19 19 19 19 18 18 18 18 18 19 19 19 19 19 20 20 21 21 22 22 23 23 23 24 24 25 25 25 26 26 27 27 27 27 27 28 27 28 28 28 28 28 27 28 28 29 29 30 31 31 31 31 31 31 31 31 31
23 24 24 25 26 26 26 26 27 27 26 26 26 26 26 26 26 25 25 25 25 24 24 23 23 22 22 21 21 20 20 20 20 20 20 20 19 20 20 20 20 20 21 21 22 22 23 24 24 24 25 25 26 26 26 27 27 27 28 28 28 28 28 29 29 29 29 29 29 29 29 29 29 29 30 31 32 32 32 32 33 33 32 32 32
23 24 25 26 26 27 27 27 27 27 27 27 27 27 27 27 27 27 27 27 26 26 25 25 24 23 23 23 22 22 22 21 21 21 21 21 21 21 21 21 21 22 22 23 23 24 24 25 25 26 26 27 27 27 28 28 28 28 28 29 29 29 29 30 30 30 30 30 30 30 31 31 31 31 31 32 33 33 33 33 34 34 34 34 33
23 25 26 27 28 28 29 29 28 28 28 28 28 28 28 28 28 28 28 28 28 27 27 26 26 25 25 24 24 24 23 23 23 22 22 22 22 22 22 23 23 23 24 24 25 25 26 26 27 27 28 28 28 29 29 29 29 29 29 30 30 30 30 31 31 31 32 32 31 31 32 32 33 32 32 33 34 34 34 34 35 35 35 35 35
23 25 26 27 28 29 30 31 30 30 29 29 29 29 29 29 29 30 29 28 28 28 28 28 27 27 26 26 26 25 25 24 24 24 23 23 23 23 23 24 24 25 26 26 27 27 28 28 29 29 29 29 29 30 30 30 30 30 31 31 31 31 31 31 32 32 33 33 33 32 32 32 33 33 33 34 35 35 35 35 36 36 36 36 36
24 24 25 26 27 28 30 31 32 32 31 30 30 30 30 30 30 31 31 30 30 29 29 30 30 28 28 27 27 27 26 26 26 25 25 25 25 25 25 25 26 27 27 28 28 29 30 30 31 31 31 31 31 31 31 31 31 32 32 32 32 32 32 32 33 33 33 34 34 33 33 33 33 34 34 34 35 36 36 36 36 36 36 37 38
26 26 27 27 28 28 29 30 31 32 32 32 32 32 32 32 32 32 32 32 32 31 31 31 31 30 30 29 29 28 28 28 28 28 28 27 27 27 27 27 28 28 29 30 30 31 31 32 32 32 33 33 33 33 33 33 33 33 33 33 33 33 34 34 34 34 34 35 35 34 34 34 34 34 35 35 35 35 36 37 38 37 37 38 39
29 30 30 30 30 30 31 31 31 32 33 33 33 33 33 33 34 34 34 34 34 34 33 33 33 32 32 31 30 30 30 29 29 29 30 30 29 29 29 30 30 30 31 31 32 32 33 33 33 33 34 35 35 35 35 35 35 35 35 35 35 35 35 35 35 35 35 35 36 36 36 36 36 36 36 36 36 37 37 37 38 39 39 39 39
31 32 32 32 33 33 33 33 33 33 34 34 34 35 35 35 35 35 35 35 35 35 35 35 35 34 33 32 32 31 31 31 30 29 29 30 30 30 31 31 31 32 32 33 34 34 34 34 34 34 35 35 36 36 36 36 36 37 37 37 37 37 37 37 37 37 37 37 37 37 37 37 37 37 38 38 38 38 37 37 38 39 39 39 39
32 33 33 33 34 34 34 34 35 35 35 35 36 36 36 36 36 36 36 35 35 36 36 36 35 35 34 33 33 32 32 32 31 30 30 30 30 30 31 31 31 32 33 34 35 35 35 36 36 36 36 36 37 37 38 38 38 38 38 39 39 39 40 40 40 39 39 39 39 39 38 38 38 39 39 39 40 39 39 39 39 39 39 40 40
33 33 33 34 34 34 35 35 35 36 36 36 37 37 37 37 36 36 36 36 36 36 36 36 36 35 35 34 33 32 33 33 32 31 31 31 31 31 31 31 32 33 34 35 36 36 36 37 37 37 37 38 38 38 38 39 39 39 40 40 41 41 41 42 42 42 42 42 42 41 41 40 41 40 40 40 41 41 41 41 41 41 41 41 41
32 33 33 33 34 34 35 35 35 36 36 36 37 37 38 38 37 37 37 36 36 36 36 36 36 35 35 34 33 32 33 33 33 32 32 32 32 32 32 33 34 34 34 35 36 36 37 38 38 38 38 38 38 38 39 39 40 40 40 41 41 41 41 42 43 43 44 44 44 44 43 43 43 43 41 41 42 43 43 43 42 42 42 42 42
32 33 33 34 34 34 35 35 35 36 36 36 37 37 38 38 38 37 37 36 37 37 37 36 35 35 34 33 33 33 33 33 33 33 34 34 34 34 34 35 35 35 34 35 37 37 38 38 38 38 39 38 38 39 39 40 40 41 41 41 42 42 42 42 42 43 43 44 45 45 45 45 44 44 43 43 44 44 44 45 45 45 45 45 45
32 33 33 33 34 34 35 35 36 36 36 36 36 37 37 37 37 36 36 36 36 36 36 35 34 33 32 32 32 33 34 33 33 33 34 34 34 35 36 37 37 37 37 39 40 40 40 40 40 40 40 40 40 40 40 41 41 41 42 42 43 43 43 43 43 44 45 46 47 47 47 47 47 47 47 46 46 46 46 46 46 46 46 46 46
33 33 33 33 34 34 35 35 36 36 36 36 36 36 36 36 35 35 35 34 34 34 34 33 32 32 31 31 32 33 33 33 33 33 34 35 35 36 37 38 39 39 40 41 41 41 41 41 41 42 42 42 41 41 41 41 42 43 43 44 44 44 43 43 44 46 47 48 50 50 51 51 51 51 51 51 50 49 48 48 47 46 47 47 46
33 34 34 34 35 35 35 36 36 36 36 36 36 35 35 34 34 33 34 33 33 33 32 31 31 31 31 30 31 32 32 33 33 34 34 35 36 36 37 39 40 41 41 42 42 42 42 43 43 43 43 43 42 42 42 42 43 43 44 44 45 45 44 44 45 46 47 49 50 51 52 52 53 53 53 53 52 51 51 51 49 48 48 48 47
34 35 35 35 35 35 36 36 37 37 36 36 35 35 33 32 32 32 32 31 31 30 30 29 29 30 30 30 30 31 31 32 32 32 33 34 35 36 37 38 40 40 41 42 42 42 42 43 43 43 43 43 43 43 43 43 44 44 45 45 46 46 45 46 46 47 47 48 49 49 50 51 51 51 52 52 52 52 53 52 51 50 49 49 48
36 36 36 36 36 36 36 36 37 37 36 35 34 33 32 31 30 30 29 28 28 28 28 28 28 28 29 29 29 29 30 30 31 31 32 33 34 35 37 38 39 40 40 41 41 41 41 42 42 42 43 43 44 44 44 44 45 45 46 46 47 47 47 47 48 49 49 49 50 50 50 50 50 50 51 51 51 51 52 53 52 52 51 50 49
36 37 37 37 37 37 37 36 36 36 35 34 32 31 30 29 29 28 27 26 25 26 26 26 26 26 27 27 28 28 29 29 30 30 31 33 34 35 36 37 38 39 40 41 41 41 41 42 42 43 43 43 44 44 45 45 46 46 47 48 49 49 49 50 51 51 51 51 51 51 51 51 50 50 51 51 51 50 51 51 52 52 52 51 50
36 37 37 37 37 36 36 35 34 34 33 31 30 29 29 28 27 26 25 25 25 25 25 25 26 26 27 27 27 27 28 28 29 30 31 33 34 35 37 38 39 40 41 42 42 42 43 43 43 43 44 44 45 45 46 47 47 48 49 50 50 51 51 51 51 52 52 52 52 52 51 51 51 51 51 51 50 50 50 50 50 51 51 51 51
36 36 36 36 36 35 33 32 31 30 29 29 28 27 27 26 25 24 24 24 25 25 25 26 26 25 26 26 26 27 27 28 29 31 32 33 35 37 38 39 40 40 41 42 42 42 42 42 43 44 44 45 46 47 47 48 48 48 49 49 50 50 50 51 51 52 52 52 52 52 52 52 51 51 50 50 49 49 49 49 49 49 49 50 50
35 35 35 34 33 31 29 28 28 27 27 27 26 25 24 24 23 23 24 24 24 24 23 23 22 22 23 24 25 26 27 27 29 30 31 33 34 35 36 37 38 38 39 40 40 41 41 41 42 43 44 45 45 46 46 46 47 47 47 48 49 49 49 50 51 51 52 52 52 52 51 51 50 49 48 47 46 47 47 47 48 48 48 48 48
34 34 32 30 29 27 26 26 25 25 25 24 24 23 22 22 22 22 22 22 22 21 20 20 20 20 21 22 22 23 24 25 26 27 29 30 31 32 33 33 34 34 35 36 37 38 39 40 41 42 42 43 43 43 44 44 45 45 46 47 48 48 48 49 49 49 49 49 49 48 48 47 46 45 44 44 43 43 43 44 44 45 45 45 46
32 30 28 27 26 25 24 23 22 22 21 21 20 20 20 20 20 20 20 19 19 19 18 18 18 18 18 19 20 20 21 22 23 24 25 26 27 28 29 30 31 32 33 35 36 37 38 39 40 41 41 41 42 42 43 43 44 45 45 46 46 45 45 45 45 45 44 44 44 43 42 41 41 40 40 40 40 40 40 40 41 41 41 42 43
27 25 24 23 22 20 19 19 19 19 19 19 19 19 19 18 18 18 17 16 16 16 16 15 15 16 16 16 16 17 18 19 20 21 22 24 25 26 28 29 31 32 33 34 36 37 38 39 40 40 41 41 41 42 42 43 43 43 42 42 41 41 41 40 40 40 39 39 39 38 38 37 37 37 37 37 37 38 38 38 38 38 39 39 40
22 20 18 17 16 16 16 17 18 18 19 19 18 18 17 17 16 15 14 13 13 13 13 12 12 13 13 14 14 15 15 17 18 20 21 23 25 26 27 29 31 32 33 35 36 37 38 38 39 39 39 39 39 40 40 40 39 39 38 38 37 36 36 36 36 36 36 36 36 36 35 35 35 34 34 34 34 35 35 35 36 36 37 37 39
15 14 13 14 14 15 16 17 18 18 18 18 17 16 15 15 14 13 12 11 10 10 10 10 10 10 11 11 12 12 14 15 17 19 21 23 24 26 27 29 31 32 33 35 36 36 37 37 37 37 37 37 36 36 36 36 35 35 34 34 33 32 32 32 33 34 34 34 34 34 34 34 33 33 33 32 32 32 32 33 33 34 34 35 36
11 12 13 14 15 15 16 16 16 16 16 16 15 14 13 12 12 12 11 10 9 9 9 9 9 9 9 9 10 11 13 15 17 19 21 23 25 26 28 30 31 32 34 35 35 35 35 35 35 34 34 33 33 33 32 32 32 31 31 30 30 30 30 31 31 32 32 32 32 32 32 32 32 32 31 31 31 31 30 30 31 31 31 32 33
12 13 15 15 16 16 16 15 15 15 15 15 14 13 13 12 11 10 10 9 8 8 7 7 7 7 7 8 9 10 12 14 17 19 21 23 25 27 28 30 31 33 34 35 34 34 33 32 32 32 31 30 30 29 29 29 29 28 28 27 27 28 28 28 28 28 29 29 30 30 30 30 30 31 31 30 30 30 30 30 30 30 30 30 31
15 16 16 16 16 16 15 15 15 14 14 14 14 13 13 12 11 9 9 8 7 6 5 5 5 5 6 7 9 10 13 15 18 20 22 24 26 28 29 30 32 33 33 33 32 31 30 30 29 29 28 27 26 26 26 26 26 25 25 25 25 26 26 26 26 26 27 27 27 27 27 28 28 28 29 29 29 29 30 29 29 29 29 29 30
16 16 16 15 15 15 15 15 15 14 13 13 13 12 11 11 10 9 8 7 6 5 5 5 5 5 6 7 9 11 14 16 19 21 23 25 26 28 29 30 31 32 32 31 30 29 28 28 27 26 25 24 23 23 23 24 24 23 23 23 24 24 25 25 25 25 25 25 26 26 26 26 26 26 26 27 27 28 29 29 28 28 28 28 28
15 14 14 14 14 14 14 14 14 13 12 12 12 11 10 9 9 8 8 7 6 6 5 5 5 5 6 8 10 12 14 17 20 22 24 25 26 27 28 29 30 30 30 30 29 28 27 26 25 24 23 22 22 22 22 22 22 22 22 22 23 23 23 24 23 23 24 24 25 25 25 25 25 24 25 25 25 26 27 27 27 27 26 26 27
12 12 12 12 12 12 12 12 12 12 12 11 11 10 9 9 8 7 7 7 7 6 5 5 5 5 7 8 11 13 15 18 20 22 24 26 27 27 28 28 29 30 30 30 29 28 26 24 23 22 21 21 21 21 21 21 21 21 21 22 22 22 22 22 22 22 22 22 23 24 24 23 23 23 23 23 24 24 25 25 26 26 25 25 25
11 10 10 11 11 11 11 11 11 11 11 11 10 9 8 8 8 7 6 6 6 6 5 4 5 6 7 9 11 14 16 18 21 23 25 26 27 27 28 28 29 30 30 29 28 27 25 23 22 21 20 20 20 20 20 21 21 21 21 21 21 20 21 21 21 21 21 21 22 22 22 22 21 21 21 21 22 22 23 24 24 25 24 24 24
10 10 9 9 10 10 10 10 10 11 11 9 9 8 8 8 8 7 6 5 5 4 4 4 5 6 8 10 12 14 17 19 21 23 25 26 26 27 28 29 30 30 30 29 28 26 24 22 21 20 19 20 20 20 20 20 20 20 20 19 19 19 20 20 20 21 21 21 21 21 20 20 20 20 20 20 20 20 21 22 23 23 23 23 23
10 9 9 9 9 10 9 9 10 10 10 9 8 8 8 8 7 6 5 4 4 4 4 4 5 7 8 10 13 15 17 19 21 23 24 25 26 27 28 29 30 31 30 29 28 26 24 21 20 19 19 20 20 20 20 19 19 19 18 18 18 18 19 19 19 20 20 19 19 18 18 17 17 17 17 18 18 18 18 19 20 21 22 22 22
9 9 9 9 9 9 9 9 9 9 9 9 9 8 8 7 6 5 4 4 4 4 4 4 6 8 9 11 13 16 17 19 21 23 24 25 26 27 28 29 30 31 31 30 28 26 23 21 20 19 20 20 20 19 18 18 18 18 17 17 17 17 18 18 18 18 17 16 16 15 14 13 12 13 13 14 15 16 16 17 18 19 20 20 20
9 8 8 8 8 8 9 9 9 9 9 9 9 8 7 6 5 4 4 3 3 3 4 5 6 8 10 12 14 16 17 19 20 22 24 25 26 27 27 29 30 31 30 30 29 27 24 21 20 20 20 19 18 18 17 17 17 16 16 16 16 17 17 17 16 15 14 14 13 12 10 9 9 9 11 12 12 13 14 15 16 17 18 18 18
9 8 8 8 8 8 9 9 9 8 8 8 8 7 6 5 4 3 3 3 3 3 4 5 7 9 10 12 14 16 17 19 20 22 23 25 26 26 27 28 30 30 30 29 29 27 25 22 20 19 19 18 18 17 17 17 16 15 15 16 16 16 16 15 14 13 13 12 11 9 7 6 6 6 7 8 9 10 12 14 14 15 16 16 17
9 9 9 8 8 8 8 8 8 8 8 7 7 6 5 4 3 3 3 2 3 3 5 6 7 9 10 12 14 16 17 18 20 22 23 25 26 26 27 28 29 30 30 29 29 28 26 23 21 19 18 18 17 17 17 16 15 15 15 16 16 15 15 13 12 11 11 11 10 7 4 3 3 3 3 4 6 9 11 12 12 13 14 16 17
10 9 8 8 7 7 7 7 7 7 7 7 6 5 4 4 3 3 2 2 3 4 5 6 8 9 10 12 14 15 17 18 20 21 23 25 26 26 27 27 28 29 30 29 29 28 26 23 20 19 18 18 17 16 16 15 14 15 15 16 15 14 13 12 10 9 9 9 9 7 5 2 1 1 2 3 5 8 10 11 12 12 14 16 17
9 8 8 7 7 6 6 6 7 7 7 6 5 5 4 3 3 3 3 3 4 5 6 7 8 10 11 12 14 15 17 18 20 22 23 24 26 26 26 27 28 29 29 29 29 28 26 24 21 19 18 17 16 16 15 15 14 14 15 15 14 13 12 10 9 8 8 8 8 8 7 6 6 5 5 6 7 9 10 12 13 14 16 18 19
8 7 7 6 5 5 5 6 6 6 6 6 5 4 4 3 3 3 3 4 5 6 7 8 9 10 11 12 14 15 17 19 20 22 23 24 25 26 26 26 27 28 29 30 29 28 27 24 21 19 18 17 16 15 15 14 14 14 14 14 13 12 10 8 7 6 7 7 6 7 6 6 7 7 8 9 10 11 13 14 15 16 18 19 19
7 6 5 4 4 4 5 5 5 5 5 5 5 5 4 4 4 4 4 5 5 6 7 8 9 10 11 13 14 15 17 18 20 22 23 24 25 26 26 26 27 27 28 29 30 29 27 25 22 19 18 17 16 15 14 14 14 13 13 13 12 11 9 7 5 5 6 6 5 6 6 7 8 9 10 11 12 13 15 16 16 17 19 20 20
5 4 4 4 4 4 4 4 5 5 5 5 5 5 5 5 5 4 5 5 6 7 8 9 10 11 12 13 14 15 17 18 20 21 22 23 24 25 25 25 26 27 27 28 29 29 28 26 23 20 18 17 16 15 14 13 13 13 12 12 11 10 8 6 5 4 5 6 5 5 7 8 9 10 11 12 13 13 14 15 16 17 18 19 19
4 4 4 4 4 5 5 5 5 5 5 5 5 5 5 5 5 5 6 6 7 8 8 9 10 11 12 13 14 15 16 18 19 21 22 23 24 25 25 25 25 26 27 28 28 28 28 26 24 21 18 16 15 14 13 13 12 12 11 10 10 9 7 6 5 4 5 5 6 7 8 9 10 11 12 12 13 13 13 14 15 17 18 18 18
4 4 4 4 4 5 5 6 6 6 6 5 5 5 5 5 6 6 6 7 7 8 9 10 10 11 12 13 14 15 16 18 19 20 21 22 23 24 25 24 24 25 26 27 28 28 28 26 25 22 19 16 15 14 13 13 12 10 9 9 9 8 7 6 5 5 5 5 7 9 10 11 12 12 12 13 13 13 14 15 16 17 18 18 18
4 4 4 4 5 5 5 5 6 6 6 6 6 6 6 6 6 6 7 7 8 8 9 10 11 11 12 13 14 15 16 17 19 20 21 21 23 24 24 24 24 24 25 26 27 28 27 26 25 22 19 16 15 15 14 13 12 10 9 8 8 7 6 6 5 5 6 7 8 10 11 11 12 12 12 12 13 13 13 15 16 17 17 18 18
3 4 4 4 5 5 5 6 6 6 7 7 7 7 6 6 7 7 7 7 8 9 9 10 11 11 12 13 14 15 16 17 18 19 20 21 22 23 24 24 23 23 24 25 26 27 27 26 25 22 19 16 15 15 15 14 12 10 9 8 7 6 6 5 5 5 6 7 8 9 10 11 11 11 11 12 12 12 13 15 16 16 17 17 18
Wind_Direction
246 247 247 248 250 251 252 254 255 257 258 258 258 258 258 258 258 258 258 258 259 259 259 259 260 260 261 262 264 267 269 270 270 271 271 271 271 271 272 272 273 274 274 275 275 275 276 276 277 277 277 277 277 277 276 275 274 272 270 269 268 267 266 266 266 267 268 268 268 268 268 269 270 269 268 268 267 268 268 268 267 266 265 264 262
249 250 250 250 251 252 253 254 256 257 258 259 260 259 259 259 258 258 258 258 259 259 259 259 259 260 260 261 263 265 267 269 271 272 273 273 273 273 273 273 274 274 275 275 276 276 276 276 277 277 278 278 278 278 278 277 276 275 273 272 271 269 268 268 268 269 269 269 268 268 269 269 269 269 269 268 268 268 268 268 267 267 265 264 263
251 253 254 253 254 255 254 254 255 256 258 260 260 260 260 259 259 259 259 259 259 259 259 259 259 260 261 262 263 265 267 269 271 273 273 273 273 273 273 274 274 275 276 276 277 277 277 277 277 278 279 279 279 278 278 277 276 275 274 273 273 271 270 270 269 270 270 270 270 269 269 269 269 269 269 269 269 269 268 267 267 267 266 265 264
252 254 255 256 257 257 256 256 256 256 257 259 260 260 260 260 259 258 259 259 259 258 258 258 258 259 261 262 263 265 267 269 272 274 274 274 273 273 273 274 275 276 277 278 278 279 278 278 279 280 280 280 280 279 278 277 276 275 275 274 273 272 271 271 270 270 271 271 271 270 270 270 270 269 269 270 270 269 268 267 266 266 266 266 265
254 255 257 257 258 257 257 258 258 257 258 259 260 260 260 260 259 259 259 259 259 258 258 258 258 258 259 261 262 264 266 268 271 274 275 275 274 274 274 275 276 277 278 279 279 280 280 280 280 281 281 281 281 280 279 278 277 276 275 275 274 273 272 271 271 271 271 271 272 272 271 271 271 270 270 270 270 270 269 267 266 266 265 266 265
259 260 260 259 258 258 258 258 259 259 259 260 260 260 260 260 260 260 260 259 259 258 257 257 257 257 258 260 261 263 265 268 271 272 274 274 275 275 276 277 278 279 280 281 281 281 281 281 281 282 282 282 281 281 280 279 278 276 276 275 275 274 273 272 272 271 271 272 273 273 273 272 272 272 271 271 270 270 269 269 267 266 265 265 265
264 264 263 262 260 260 259 259 259 260 260 260 260 260 260 260 260 260 261 261 259 257 256 255 255 256 257 259 260 263 265 267 269 270 271 273 274 276 277 279 280 281 282 283 283 283 283 282 282 282 282 282 281 281 280 279 278 276 276 275 275 274 273 273 273 272 272 272 273 274 274 273 273 272 272 272 271 270 269 269 268 267 265 264 264
267 267 265 264 263 263 262 261 261 260 260 260 260 261 261 261 260 260 262 262 260 258 257 255 255 255 256 258 260 262 264 266 267 268 269 271 273 274 277 279 281 282 283 283 283 283 284 284 283 282 281 281 280 280 280 279 278 277 276 275 274 274 273 273 273 273 273 273 273 274 275 275 274 274 274 273 272 271 270 269 268 268 267 265 264
268 268 266 265 265 265 264 263 263 262 261 260 260 261 261 261 261 261 261 261 260 260 259 257 256 256 257 259 261 262 263 265 267 268 268 270 272 274 276 278 280 281 282 283 283 283 283 284 283 282 281 280 280 279 278 278 277 276 276 275 274 274 274 273 273 273 273 273 274 274 275 275 275 275 275 274 273 272 271 269 268 268 267 267 265
269 268 267 266 265 266 265 265 264 263 262 262 261 261 261 261 261 261 260 260 260 259 259 258 258 259 259 260 261 262 263 266 268 268 268 270 272 274 276 278 279 280 281 282 283 283 283 283 283 282 282 281 280 278 277 277 276 275 275 274 274 274 273 273 273 273 273 273 274 274 275 275 275 276 276 275 274 274 272 270 269 268 268 267 266
269 268 267 267 266 266 265 265 264 263 262 262 262 262 262 262 262 262 261 260 259 258 258 258 258 260 260 261 261 262 264 265 267 268 269 271 273 275 277 278 278 279 281 282 283 283 283 283 283 283 282 282 280 279 277 276 276 275 274 273 272 272 272 273 273 272 272 273 273 274 274 275 276 276 276 276 275 274 273 271 270 269 268 267 267
269 268 268 267 267 267 266 265 264 263 262 261 261 262 262 262 262 261 261 260 259 258 257 257 258 259 260 261 262 263 264 264 265 268 270 271 273 276 276 277 279 280 280 281 282 282 282 282 283 283 283 282 282 280 278 277 275 275 274 273 272 272 271 271 272 272 272 272 272 273 273 274 275 275 275 275 276 275 273 272 271 270 269 267 266
269 269 268 268 267 267 267 266 265 264 262 261 261 261 261 261 260 260 260 260 259 258 257 257 257 258 259 261 262 263 264 264 264 268 270 271 273 275 276 278 281 281 281 281 281 282 282 283 283 283 282 282 282 281 279 278 276 275 274 273 273 272 272 271 271 271 271 271 272 272 272 273 273 274 274 275 275 274 273 272 271 270 269 268 267
269 269 268 268 268 267 267 266 266 265 263 262 261 260 261 261 260 259 259 259 258 257 256 256 257 258 259 261 262 264 265 264 265 267 269 270 272 274 276 280 282 283 282 282 282 283 283 283 283 283 282 281 281 280 280 279 277 276 274 274 273 273 272 271 271 271 271 271 271 271 272 272 273 273 274 274 274 273 273 272 271 269 268 268 267
269 269 269 268 268 267 267 266 265 265 264 262 261 260 260 260 260 259 259 258 257 256 255 255 256 257 259 260 262 264 265 265 265 267 268 270 271 273 276 280 282 281 281 283 284 284 283 283 282 282 282 281 281 280 280 279 278 276 274 274 274 273 273 272 271 271 271 271 271 271 272 272 272 273 273 273 272 272 272 271 270 269 268 268 267
270 270 269 269 268 268 267 266 266 265 264 262 261 260 260 259 259 258 258 257 257 255 254 254 255 256 258 260 262 264 265 266 266 266 267 270 272 275 277 279 280 280 282 283 284 284 284 283 282 281 281 281 281 280 280 279 277 276 274 274 273 273 273 272 272 272 272 272 272 272 272 272 272 272 272 272 271 271 270 270 269 268 267 267 266
270 270 269 269 268 268 267 267 266 265 263 262 261 260 259 259 258 257 256 255 254 252 252 253 254 255 257 260 262 263 265 266 266 267 268 270 273 276 277 278 279 281 283 284 284 284 283 282 282 282 281 281 281 281 280 278 277 275 275 274 274 273 273 273 273 273 273 273 272 272 272 272 272 272 271 271 270 269 268 268 267 266 265 265 265
271 270 270 269 269 268 267 266 266 264 263 261 260 259 259 258 257 256 255 254 251 250 250 251 253 255 257 259 262 263 265 266 267 268 270 271 274 276 278 279 281 282 284 284 284 283 282 282 282 282 282 282 282 281 279 278 276 275 275 274 274 274 274 275 275 275 275 274 274 273 273 273 273 272 271 270 268 267 266 266 265 264 263 263 263
272 271 271 270 270 269 268 267 265 263 262 260 258 258 258 257 257 256 254 252 250 248 249 251 253 255 257 259 261 263 265 266 268 270 271 273 276 278 280 281 283 284 284 284 284 283 283 282 282 282 282 282 282 281 279 277 276 275 275 274 274 274 275 276 276 276 276 275 275 275 274 274 273 272 271 269 267 265 264 264 263 263 262 261 261
273 273 272 272 271 270 269 268 266 263 260 258 257 256 255 255 255 253 250 249 249 248 249 251 252 255 257 259 261 263 265 267 269 271 273 275 278 280 281 283 284 285 285 285 285 284 283 283 282 282 283 282 281 280 279 277 276 276 275 275 275 276 277 277 276 276 276 276 275 275 275 274 273 272 271 269 267 265 263 262 261 261 260 260 259
274 274 273 273 272 271 270 268 266 262 259 257 255 254 253 253 251 247 244 246 247 246 246 246 249 253 256 259 262 265 267 269 271 273 276 278 280 282 283 284 285 286 286 286 285 285 284 284 283 283 283 283 282 281 280 278 277 277 276 276 276 277 277 277 277 277 276 276 275 275 274 274 273 272 271 269 267 265 263 262 260 259 258 258 257
276 275 274 273 272 271 269 267 264 260 256 253 251 250 249 248 244 241 241 242 242 241 243 247 251 256 259 262 265 267 269 271 273 276 279 281 282 284 285 286 287 287 287 287 286 286 286 285 284 284 283 283 282 281 280 280 278 277 277 277 277 277 277 277 277 277 276 276 275 274 274 273 272 271 270 269 267 265 263 261 259 258 257 256 255
277 276 274 273 271 269 266 263 259 254 250 247 245 244 242 240 238 237 238 239 240 242 247 251 254 258 261 264 266 267 269 272 276 279 281 283 285 286 287 288 288 288 288 288 288 287 287 286 285 284 284 283 282 281 280 279 278 277 277 277 277 277 277 277 277 276 276 275 275 274 273 272 271 270 269 267 266 264 262 260 258 257 256 255 254
277 276 274 272 269 266 262 257 253 249 245 241 239 236 235 234 235 237 238 238 240 242 246 250 254 258 262 265 267 268 271 275 278 280 283 286 288 289 289 290 290 290 289 289 289 288 287 287 286 286 285 284 283 282 281 280 279 279 278 278 278 277 277 277 276 276 275 275 274 273 272 271 270 269 267 266 265 263 261 259 257 256 255 254 253
277 274 272 268 264 261 257 252 247 242 237 234 231 230 231 232 233 235 236 236 238 240 244 250 255 260 264 268 271 272 275 278 281 284 287 289 290 291 292 292 292 292 292 291 291 290 290 289 289 289 288 287 286 285 284 282 281 281 280 279 279 279 278 278 277 276 275 274 273 272 272 271 270 268 267 265 264 262 260 259 257 256 254 252 251
275 271 267 263 259 254 249 243 237 230 226 225 225 225 226 226 226 228 230 233 236 240 244 251 257 262 267 271 274 276 278 282 286 289 291 292 293 294 295 295 295 295 295 294 294 293 293 292 292 291 289 288 287 286 285 284 283 282 282 281 281 280 279 278 277 276 275 274 274 272 271 271 269 268 266 265 263 261 259 257 256 255 253 251 250
271 267 263 258 252 244 235 227 221 217 215 215 215 215 217 217 218 220 224 228 233 237 242 249 256 262 267 271 274 278 282 286 290 293 295 296 297 298 298 299 299 298 298 297 296 295 294 293 292 290 289 288 287 286 285 285 284 284 284 283 281 280 278 277 277 276 276 275 274 273 272 271 270 268 266 264 262 261 258 256 254 253 252 250 249
265 259 251 243 235 225 216 210 206 205 204 205 205 207 209 210 212 215 218 222 226 231 238 247 255 260 265 270 275 281 287 291 295 298 299 300 301 301 302 302 302 302 301 300 299 297 295 294 292 291 290 289 288 288 287 286 286 285 284 283 281 279 278 277 277 276 275 275 274 273 272 271 269 268 265 263 261 259 257 255 253 252 251 250 248
250 238 226 218 210 204 199 197 195 195 196 196 198 200 201 201 202 204 210 215 220 227 234 242 250 257 263 270 278 285 292 297 301 304 305 305 306 306 306 306 305 305 304 303 302 299 298 296 295 293 292 291 290 289 288 287 286 286 284 283 282 280 279 278 277 276 275 275 274 273 272 270 268 267 264 262 260 258 256 254 252 251 250 249 248
216 202 194 190 187 184 183 182 183 184 184 185 186 189 190 191 193 197 203 210 218 226 233 240 249 258 265 274 283 292 299 304 309 311 311 311 311 311 310 310 309 309 308 307 305 303 301 299 297 295 294 293 292 291 290 289 288 287 286 284 283 282 280 279 278 277 276 275 274 273 272 269 267 265 263 261 259 257 255 253 252 251 250 248 247
170 169 168 167 166 166 167 167 169 171 172 173 175 178 180 184 189 193 198 206 215 225 234 241 250 262 273 283 292 299 307 313 316 317 317 317 316 316 315 314 313 312 311 310 308 306 304 302 300 298 297 295 293 292 291 291 290 288 287 286 285 284 283 281 280 279 278 277 275 273 271 269 266 263 261 259 257 255 254 253 252 251 250 248 246
147 149 151 153 155 157 159 160 162 165 166 168 170 173 177 181 186 191 197 206 215 222 229 238 252 268 283 294 303 310 316 321 323 323 323 322 321 321 320 318 317 316 314 313 312 310 308 306 304 302 300 297 295 294 294 294 292 290 289 288 288 287 286 284 283 282 281 279 276 274 271 269 267 263 260 258 256 254 252 251 250 250 249 247 245
145 147 150 152 156 159 160 162 164 165 166 168 171 174 177 180 185 191 198 205 210 217 229 245 261 277 292 303 313 319 323 326 328 328 328 327 326 325 325 323 322 320 319 318 317 315 312 310 308 307 304 301 298 298 298 298 296 294 292 291 290 289 289 288 288 286 283 280 277 274 272 270 267 264 260 257 255 253 252 250 249 248 247 246 244
150 151 153 156 159 162 163 165 168 170 171 172 173 176 178 179 183 188 194 200 209 221 237 255 271 287 301 311 320 325 328 330 332 332 332 331 330 329 329 329 328 326 325 324 322 320 317 315 313 311 308 305 303 302 302 302 301 299 297 294 292 291 291 292 290 288 285 282 280 277 275 271 267 264 261 258 255 253 251 249 247 246 245 243 241
157 156 158 161 165 167 170 172 175 176 175 175 176 178 180 183 185 188 193 203 214 225 238 257 278 298 311 320 327 330 332 333 335 335 335 334 333 333 333 334 334 332 331 329 327 325 322 319 317 315 312 309 309 308 307 306 305 303 301 298 295 294 293 293 292 291 289 287 284 280 275 271 266 263 261 259 256 252 249 247 245 243 242 240 238
167 167 168 170 172 173 175 178 180 179 178 178 180 183 183 185 187 192 201 212 221 228 242 264 288 307 319 326 330 332 334 335 336 337 337 336 336 337 338 338 337 335 334 333 331 329 325 323 321 318 315 314 313 312 312 311 309 307 305 302 299 296 296 296 295 295 294 291 287 282 276 270 265 262 260 258 255 251 248 245 243 240 237 235 234
176 176 176 176 178 177 176 177 179 179 178 178 180 182 183 187 193 200 208 216 224 233 249 274 296 311 321 328 331 333 335 336 337 338 339 339 339 341 342 341 340 339 338 337 336 333 329 326 323 321 319 318 317 316 315 313 311 310 310 307 304 301 301 301 300 299 297 295 291 285 278 272 266 262 258 255 252 249 246 242 240 237 232 229 227
181 180 178 179 180 179 177 176 175 175 177 178 180 184 188 193 199 204 209 217 229 241 259 285 304 313 321 327 331 334 336 337 338 340 342 342 343 343 344 344 343 342 341 340 339 337 333 328 326 325 324 323 321 319 317 316 316 316 315 313 311 309 308 307 305 303 302 300 296 289 281 273 266 260 255 252 248 246 242 238 234 230 227 224 224
177 175 174 173 173 175 177 177 175 175 179 183 186 189 193 196 200 206 214 225 238 253 275 296 308 316 322 328 332 334 337 338 340 342 343 345 345 345 345 345 346 345 344 343 343 341 336 332 329 328 327 326 324 322 321 321 321 321 321 320 318 317 316 315 313 311 310 309 304 297 287 275 264 256 252 249 246 242 237 231 224 221 221 220 219
172 170 170 169 169 171 174 175 175 177 181 185 189 191 193 197 204 214 224 233 246 268 291 304 312 319 325 330 333 336 338 340 341 342 344 345 346 346 346 347 347 347 346 346 346 344 341 336 332 331 331 330 329 327 326 326 326 326 326 326 325 325 324 321 320 320 320 319 315 305 291 275 264 256 252 249 244 236 226 217 214 214 214 213 211
169 167 165 165 166 168 171 173 175 177 180 184 186 188 191 198 208 218 227 239 260 284 300 309 315 321 328 333 336 337 339 340 342 343 344 346 347 346 347 348 349 348 348 349 348 347 344 340 337 335 334 334 333 332 332 332 332 331 331 331 330 330 329 326 326 328 330 330 327 318 298 279 269 262 253 242 229 216 207 204 205 207 206 203 202
168 166 164 164 167 170 171 172 174 177 180 182 183 187 191 198 208 220 233 253 279 296 305 312 317 323 330 335 337 337 339 341 343 343 344 346 347 347 348 349 350 350 350 350 350 349 347 344 341 339 338 337 336 335 336 336 337 336 335 335 335 335 333 331 333 337 341 345 348 344 327 297 273 259 244 220 205 197 193 193 195 194 192 191 189
166 166 165 167 171 173 174 174 176 178 181 182 186 191 197 204 217 231 246 273 294 304 310 316 320 324 329 333 336 337 339 341 343 343 344 345 347 348 348 350 351 352 352 352 352 351 349 347 345 342 342 341 339 338 338 339 339 339 338 338 339 339 337 337 340 345 352 1 9 14 20 33 65 149 165 163 169 176 178 179 179 178 176 176 175
163 166 167 169 173 176 178 179 180 183 185 187 192 199 206 218 231 245 265 289 302 309 314 318 322 325 329 332 335 337 339 341 342 343 344 345 347 347 348 350 352 352 353 353 353 353 352 351 348 345 344 344 343 342 341 342 342 341 341 341 341 341 342 344 349 356 1 9 19 29 41 61 78 90 108 125 136 146 153 156 158 159 160 161 163
166 169 170 173 177 182 185 187 189 192 195 198 203 210 219 231 244 260 279 294 303 310 314 318 322 326 329 332 335 337 339 341 342 343 344 345 346 347 348 350 352 353 354 354 354 355 355 353 351 348 346 346 346 346 345 345 344 344 345 346 347 348 349 351 357 5 10 14 26 36 46 65 83 91 101 113 122 129 135 138 142 147 150 153 155
176 181 185 191 192 192 195 199 203 206 209 212 216 223 232 243 253 268 284 295 304 310 315 319 323 326 329 332 334 337 339 341 342 343 344 345 346 347 348 349 352 353 354 355 355 356 357 356 353 350 348 347 348 349 348 347 347 347 349 352 353 356 358 360 4 15 21 24 37 53 63 77 93 101 107 113 118 123 128 133 138 143 147 149 151
187 198 208 211 210 209 212 215 215 216 219 222 225 233 242 250 260 272 284 295 304 309 314 318 322 325 329 331 333 336 339 341 342 344 345 345 346 347 348 349 351 353 354 355 356 357 358 358 357 354 351 349 350 352 352 351 351 351 353 356 359 3 11 15 21 33 36 36 51 77 86 91 101 110 115 118 120 122 128 135 142 146 148 150 152
201 216 227 228 225 226 228 229 227 225 225 227 232 240 249 257 265 276 285 294 303 308 313 318 322 325 327 330 332 335 338 340 342 343 345 346 347 347 348 350 351 353 354 356 356 357 358 359 358 357 354 352 353 355 357 356 355 356 359 2 4 9 18 26 33 42 44 49 73 97 100 100 107 115 119 123 125 125 127 133 140 144 147 148 148
215 226 234 236 234 232 230 229 228 226 228 232 238 247 256 264 272 281 287 294 301 306 311 316 321 324 326 329 332 334 337 339 340 342 344 345 347 348 349 350 351 353 355 356 357 358 359 359 360 359 357 356 357 359 1 0 360 0 3 6 9 15 23 32 42 54 61 74 97 109 109 107 110 115 119 122 125 126 127 131 135 139 142 143 144
220 227 231 233 235 234 232 230 228 229 232 237 242 250 259 267 274 282 289 295 301 306 310 314 319 322 325 329 331 333 335 337 339 340 342 345 347 348 349 350 351 353 355 356 358 359 360 0 1 1 1 1 2 5 6 6 5 5 7 10 14 22 31 39 53 69 80 93 108 115 114 112 113 115 119 124 126 126 127 131 135 138 140 140 141
233 237 237 237 238 237 235 234 234 235 237 241 245 250 257 265 272 280 287 293 300 305 309 313 317 321 324 327 330 332 334 336 338 339 341 344 346 348 349 350 352 354 355 357 359 0 1 2 3 3 3 4 6 9 12 12 10 9 13 18 23 30 41 52 69 83 92 102 113 118 119 119 118 118 120 125 128 129 129 131 134 137 139 139 140